Terminal Aerodrome Forecast
Issued by NWS

Home | Current Version | Previous Version | Text Only | Print | Product List | Glossary On
Versions: 1 2 3 4 5 6 7 8 9 10 11 12 13 14 15
000
FTUS42 KMHX 031121
TAFISO
TAF
KISO 031121Z 0312/0412 08006KT 2SM -RA BR BKN005 BKN010
     FM031500 VRB05KT P6SM VCTS BKN015CB
     FM032300 02004KT P6SM VCSH OVC015
     FM040600 02004KT 5SM -RA BR OVC010
      AMD LTD TO CLD VIS AND WIND=

USA.gov is the U.S. government's official web portal to all federal, state and local government web resources and services.